Weather in Brooklyn Borough

United States     40°38′58″N   73°57′24″W
temp.,
°C
wind,
m/s
gust,
m/s
humid.,
%
clouds,
%
prec.,
mm/h
press.,
hPa
HPBL,
m
18 september, sat
sat1823:00+22ne478737 0.1 1020495
02:00+21nne358757 0.1 1019373
05:00+20n35862 0.0 1018245
08:00+21n12790 0.0 1018218
11:00+26nnw24580 0.0 1018902
14:00+30nnw244349 0.0 10151929
17:00+30nw243952 0.0 10132008
20:00+28nnw584821 0.0 1015791
19 september, sun
sun1923:00+24nnw59650 0.0 1017449
02:00+22n47730 0.0 1017500
05:00+21nnw397450 0.0 1018529
08:00+20n48645 0.0 1020530
11:00+24n562911 0.0 1021967
14:00+26n44285 0.0 10201512
17:00+26n33290 0.0 10201562
20:00+23ne12430 0.0 1022448
20 september, mon
mon2023:00+22ne12490 0.0 1024421
02:00+21sse126016 0.0 1025463
05:00+20ne12629 0.0 1025185
08:00+20ene23627 0.0 1027505
11:00+24se44481 0.0 10281381
14:00+24sse55461 0.0 10281468
17:00+23se56474 0.0 10271296
20:00+21se4655100 0.0 1029920
21 september, tue
tue2123:00+20se46582 0.0 1029889
02:00+20ese35614 0.0 1029837
05:00+19e366533 0.0 1028654
08:00+20e3766100 0.0 1028591
11:00+23ese565199 0.0 10281423
14:00+24se5651100 0.0 10271410
17:00+23se555497 0.0 10261083
20:00+22ese576171 0.0 1025788
22 september, wed
wed2223:00+22se4867100 0.0 1024692
02:00+22se5871100 0.0 1022784
05:00+22se5977100 0.0 1020797
08:00+22se61082100 0.6 1019848
11:00+22se598599 1.4 1017723
14:00+24sse71176100 2.3 1015988
17:00+24sse71177100 0.9 1012823
20:00+22sw41184100 2.1 1012919